S51FO-6 Weather Reports


time (UTC)temp
C
wind
direction
speed
KPH
gust
KPH
rain 1hr
cm
rain 24hr
cm
rain mn
cm
humidity
%
barometer
mb
20260507074944 8 0.0 0.0 0.00 6.78 0.18 85
20260507073944 9 0.0 0.0 0.00 6.83 0.18 87
20260507072944 8 0.0 0.0 0.00 6.88 0.18 87
20260507071944 8 0.0 0.0 0.00 6.88 0.18 87
20260507070944 8 0.0 0.0 0.00 6.88 0.18 87
20260507065944 8 0.0 0.0 0.00 6.88 0.18 87
20260507064944 8 0.0 0.0 0.00 6.91 0.18 87
20260507063944 8 0.0 0.0 0.00 6.91 0.18 87
20260507062944 8 0.0 0.0 0.00 6.96 0.18 87
20260507061944 8 0.0 0.0 0.00 6.96 0.18 87
20260507055944 8 0.0 0.0 0.00 6.99 0.18 87
20260507054944 7 0.0 0.0 0.00 6.99 0.18 87
20260507051946 7 0.0 0.0 0.00 7.01 0.18 87
20260507044947 7 0.0 0.0 0.00 7.04 0.18 87
20260507043946 7 0.0 0.0 0.00 7.04 0.18 87
20260507041947 7 0.0 0.0 0.00 7.06 0.18 87
20260507035946 7 0.0 0.0 0.00 7.06 0.18 87
20260507032946 8 0.0 0.0 0.00 7.04 0.15 87
20260507031948 8 0.0 0.0 0.03 7.04 0.15 87
20260507030947 8 0.0 0.0 0.03 7.04 0.15 87
20260507025953 7 0.0 0.0 0.03 7.04 0.15 87
20260507024948 7 0.0 0.0 0.03 7.06 0.15 87
20260507023948 7 0.0 0.0 0.03 7.06 0.15 87
20260507022946 7 0.0 0.0 0.03 7.06 0.15 87
20260507021946 7 0.0 0.0 0.00 7.01 0.10 87
20260507020946 7 0.0 0.0 0.00 7.01 0.10 87
20260507014950 7 0.0 0.0 0.00 7.01 0.10 87
20260507013954 7 0.0 0.0 0.00 7.01 0.10 87
20260507012947 7 0.0 0.0 0.00 7.01 0.10 87
20260507011946 7 0.0 0.0 0.03 7.01 0.10 87
20260507010946 7 0.0 0.0 0.05 7.01 0.10 87
20260507010204 7 0.0 0.0 0.10 7.01 0.10 87
20260507005952 7 0.0 0.0 0.10 7.01 0.10 87
20260507004948 7 0.0 0.0 0.18 7.01 0.10 87
20260507003947 7 0.0 0.0 0.25 7.01 0.10 87
20260507002946 7 0.0 0.0 0.33 7.01 0.10 87
20260507001946 7 0.0 0.0 0.43 6.99 0.08 87
20260507000950 7 0.0 0.0 0.53 6.96 0.05 87
20260507000214 7 0.0 0.0 0.61 6.93 0.00 87
20260506235951 7 0.0 0.0 0.61 6.93 0.00 87
20260506234946 7 0.0 0.0 0.69 6.88 6.88 87
20260506230952 6 0.0 0.0 0.79 6.45 6.45 87
20260506225947 6 0.0 0.0 0.76 6.32 6.32 87
20260506224948 6 0.0 0.0 0.74 6.17 6.20 87
20260506221948 6 0.0 0.0 0.71 5.79 5.79 87
20260506220946 7 0.0 0.0 0.74 5.66 5.66 87
20260506215949 7 0.0 0.0 0.79 5.56 5.56 87
20260506214946 7 0.0 0.0 0.81 5.44 5.44 87
20260506213946 7 0.0 0.0 0.81 5.33 5.33 87
20260506211944 7 0.0 0.0 0.79 5.05 5.05 87
20260506210949 7 0.0 0.0 0.79 4.90 4.90 87
20260506205944 7 0.0 0.0 0.76 4.78 4.78 87
20260506204944 6 0.0 0.0 0.76 4.62 4.62 87
20260506203944 6 0.0 0.0 0.79 4.50 4.50 87
20260506202944 6 0.0 0.0 0.74 4.37 4.37 87
20260506201944 6 0.0 0.0 0.64 4.27 4.27 87
20260506200944 6 0.0 0.0 0.53 4.11 4.11 87
20260506195944 6 0.0 0.0 0.48 3.99 3.99 87
20260506194944 6 0.0 0.0 0.41 3.86 3.86 87
20260506191944 8 0.0 0.0 0.41 3.61 3.61 87
20260506190944 8 0.0 0.0 0.46 3.56 3.56 87
20260506185944 8 0.0 0.0 0.43 3.51 3.51 87
20260506184946 8 0.0 0.0 0.41 3.45 3.45 87
20260506183944 8 0.0 0.0 0.41 3.38 3.38 88
20260506182944 8 0.0 0.0 0.41 3.30 3.30 87
20260506181944 8 0.0 0.0 0.38 3.20 3.20 88
20260506175944 8 0.0 0.0 0.28 3.10 3.05 87
20260506174944 8 0.0 0.0 0.23 3.07 3.02 87
20260506173944 8 0.0 0.0 0.20 3.05 2.95 87
20260506172944 8 0.0 0.0 0.10 2.95 2.87 87
20260506171944 8 0.0 0.0 0.05 2.92 2.82 87
20260506170944 8 0.0 0.0 0.05 2.95 2.82 87
20260506164944 8 0.0 0.0 0.00 2.95 2.77 87
20260506163944 8 0.0 0.0 0.00 2.95 2.74 87
20260506162944 8 0.0 0.0 0.00 3.00 2.74 87
20260506161944 8 0.0 0.0 0.00 3.00 2.74 87
20260506160944 8 0.0 0.0 0.00 3.00 2.74 87
20260506155944 8 0.0 0.0 0.08 3.02 2.74 87
20260506154944 8 0.0 0.0 0.10 3.02 2.74 87
20260506152944 8 0.0 0.0 0.13 3.05 2.74 87
20260506150944 8 0.0 0.0 0.23 3.02 2.74 87
20260506145944 8 0.0 0.0 0.28 2.95 2.67 87
20260506144944 8 0.0 0.0 0.33 2.95 2.64 87
20260506143944 8 0.0 0.0 0.41 2.95 2.64 87
20260506141944 8 0.0 0.0 0.48 2.87 2.57 87
20260506135944 8 0.0 0.0 0.43 2.72 2.39 87
20260506134944 8 0.0 0.0 0.41 2.64 2.31 87
20260506133944 8 0.0 0.0 0.41 2.54 2.24 87
20260506132944 8 0.0 0.0 0.41 2.49 2.16 87
20260506130944 8 0.0 0.0 0.36 2.34 2.01 87
20260506125944 8 0.0 0.0 0.36 2.26 1.93 87
20260506124944 8 0.0 0.0 0.38 2.21 1.88 87
20260506123944 8 0.0 0.0 0.38 2.13 1.80 87
20260506122947 8 0.0 0.0 0.41 2.08 1.75 87
20260506121944 8 0.0 0.0 0.41 2.03 1.70 87
20260506120944 8 0.0 0.0 0.41 1.96 1.63 87
20260506115953 8 0.0 0.0 0.43 1.91 1.57 87
20260506114944 7 0.0 0.0 0.41 1.83 1.50 87
20260506113944 7 0.0 0.0 0.43 1.75 1.42 87
20260506112944 7 0.0 0.0 0.41 1.68 1.35 87
20260506110944 7 0.0 0.0 0.41 1.52 1.19 87
20260506105944 7 0.0 0.0 0.36 1.45 1.12 87
20260506104946 7 0.0 0.0 0.33 1.40 1.07 87
20260506103951 7 0.0 0.0 0.28 1.32 0.99 87
20260506102950 7 0.0 0.0 0.20 1.24 0.91 87
20260506101944 7 0.0 0.0 0.15 1.19 0.86 87
20260506100944 7 0.0 0.0 0.10 1.12 0.79 87
20260506095944 7 0.0 0.0 0.05 1.09 0.76 87
20260506094944 7 0.0 0.0 0.03 1.07 0.71 87
20260506093944 7 0.0 0.0 0.05 1.04 0.69 87
20260506092944 7 0.0 0.0 0.10 1.04 0.69 87
20260506091944 7 0.0 0.0 0.15 1.07 0.69 87
20260506090944 7 0.0 0.0 0.20 1.09 0.69 87
20260506085944 7 0.0 0.0 0.28 1.12 0.69 87
20260506084944 6 0.0 0.0 0.33 1.09 0.69 87
20260506083944 6 0.0 0.0 0.36 1.04 0.64 87
20260506082944 6 0.0 0.0 0.33 0.99 0.58 87
20260506081944 6 0.0 0.0 0.30 0.94 0.53 87
20260506080944 7 0.0 0.0 0.23 0.89 0.48 87